DW6455 Orivesi FI current weather conditions

sailwx.info

Wind from 015 at 2 knots gusting 7

Air temperature 21.1° C
Dewpoint 14.5° C

Last reported at 2019-Jul-17 09:57 UTC.
Time now 2019-Jul-17 10:27 UTC

Location: N 61°39' E 024°21'.
View on Google Maps.

See reports from other nearby stations

  
Tides and Currents Weather Stations Pressure Air Temp Water Temp Dewpoint Dewpoint Depression Visibility Wind Speed Wind Dir Waves Ship Positions
date/time (UTC)wind fromknots sea level pressurealtimeterstation pressurevisibilityair tempwater tempwave heightnotes
2019-Jul-17 10:07 005 3 gusting 8 20.6
2019-Jul-17 10:02 059 2 gusting 7 20.6
2019-Jul-17 09:57 015 2 gusting 7 21.1
2019-Jul-17 09:52 355 3 gusting 7 21.1
2019-Jul-17 09:47 021 2 gusting 7 21.1
2019-Jul-17 09:42 342 2 gusting 6 21.1
2019-Jul-17 09:37 052 1 gusting 6 21.1
2019-Jul-17 09:32 119 1 gusting 5 20.6
2019-Jul-17 09:27 086 2 gusting 5 20.6
2019-Jul-17 09:22 355 2 gusting 3 20.6
2019-Jul-17 09:17 20.6
2019-Jul-17 09:12 035 0 gusting 4 20.6
2019-Jul-17 09:07 034 1 gusting 4 20.6
2019-Jul-17 09:02 035 1 gusting 5 20.0
2019-Jul-17 08:57 034 1 gusting 5 20.0
2019-Jul-17 08:52 034 1 gusting 4 20.0
2019-Jul-17 08:47 033 1 gusting 4 20.0
2019-Jul-17 08:42 036 0 gusting 6 20.0
2019-Jul-17 08:37 036 1 gusting 6 20.0
2019-Jul-17 08:32 005 1 gusting 6 20.0
2019-Jul-17 08:27 355 2 gusting 6 20.0
2019-Jul-17 08:22 109 2 gusting 6 19.4
2019-Jul-17 08:17 059 2 gusting 6 19.4
2019-Jul-17 08:12 012 2 gusting 6 19.4
2019-Jul-17 08:07 012 2 gusting 6 19.4
2019-Jul-17 08:02 355 2 gusting 6 19.4
2019-Jul-17 07:57 013 2 gusting 6 19.4
2019-Jul-17 07:52 026 2 gusting 6 19.4
2019-Jul-17 07:47 035 1 gusting 6 19.4
2019-Jul-17 07:42 024 0 gusting 4 19.4
2019-Jul-17 07:37 068 0 gusting 4 18.9
2019-Jul-17 07:32 068 0 gusting 4 18.9
2019-Jul-17 07:27 040 0 gusting 4 18.9
2019-Jul-17 07:22 026 0 gusting 5 18.9
2019-Jul-17 07:17 026 1 gusting 5 18.3
2019-Jul-17 07:12 031 1 gusting 3 18.3
2019-Jul-17 07:07 009 1 gusting 3 18.3
2019-Jul-17 07:02 051 0 gusting 2 18.3
2019-Jul-17 06:57 019 0 gusting 2 18.3
2019-Jul-17 06:52 019 0 gusting 3 18.3
2019-Jul-17 06:47 019 17.8
2019-Jul-17 06:42 019 0 gusting 3 17.8
2019-Jul-17 06:37 019 0 gusting 3 17.8
2019-Jul-17 06:32 019 17.2
2019-Jul-17 06:27 019 0 gusting 4 17.2
2019-Jul-17 06:22 019 1 gusting 6 17.2
2019-Jul-17 06:17 019 1 gusting 6 17.2
2019-Jul-17 06:12 019 1 gusting 3 17.2
2019-Jul-17 06:07 019 1 gusting 3 17.2
2019-Jul-17 06:02 044 0 gusting 4 17.8
2019-Jul-17 05:57 044 1 gusting 4 17.8
2019-Jul-17 05:52 067 1 gusting 4 17.8
2019-Jul-17 05:47 033 1 gusting 4 18.3
2019-Jul-17 05:42 032 1 gusting 4 18.3
2019-Jul-17 05:37 034 1 gusting 4 18.3
2019-Jul-17 05:32 049 1 gusting 5 17.8
2019-Jul-17 05:27 049 1 gusting 5 17.2
2019-Jul-17 05:22 049 1 gusting 6 16.7
2019-Jul-17 05:17 029 1 gusting 6 16.1
2019-Jul-17 05:12 065 2 gusting 6 15.6
2019-Jul-17 05:07 044 2 gusting 6 15.6
2019-Jul-17 05:02 028 2 gusting 5 15.0
2019-Jul-17 04:57 020 1 gusting 5 15.0
2019-Jul-17 04:52 020 1 gusting 5 14.4
2019-Jul-17 04:47 017 2 gusting 5 14.4
2019-Jul-17 04:42 355 1 gusting 5 14.4
2019-Jul-17 04:37 011 2 gusting 5 13.9
2019-Jul-17 04:32 009 1 gusting 3 13.9
2019-Jul-17 04:27 13.3
2019-Jul-17 04:22 13.3
2019-Jul-17 04:17 13.3
2019-Jul-17 04:12 13.3
2019-Jul-17 04:07 13.3
2019-Jul-17 04:02 13.3
2019-Jul-17 03:57 12.8
2019-Jul-17 03:52 12.8
2019-Jul-17 03:47 12.8
2019-Jul-17 03:42 12.2
2019-Jul-17 03:37 12.2
2019-Jul-17 03:32 12.2
2019-Jul-17 03:27 11.7
2019-Jul-17 03:22 11.7
2019-Jul-17 03:17 11.7
2019-Jul-17 03:12 11.7
2019-Jul-17 03:07 11.7
2019-Jul-17 03:02 11.1
2019-Jul-17 02:57 11.1
2019-Jul-17 02:52 11.1
2019-Jul-17 02:47 11.1
2019-Jul-17 02:42 11.1
2019-Jul-17 02:37 10.6
2019-Jul-17 02:32 10.6
2019-Jul-17 02:27 10.6
2019-Jul-17 02:22 10.6
2019-Jul-17 02:17 10.6
2019-Jul-17 02:12 10.6
2019-Jul-17 02:07 10.6
2019-Jul-17 02:02 11.1
2019-Jul-17 01:57 11.1
2019-Jul-17 01:52 11.1
2019-Jul-17 01:47 11.1
2019-Jul-17 01:42 11.1
2019-Jul-17 01:37 11.1
2019-Jul-17 01:32 11.1
2019-Jul-17 01:27 11.1
2019-Jul-17 01:22 11.1
2019-Jul-17 01:17 11.1
2019-Jul-17 01:12 11.1
2019-Jul-17 01:07 11.1
2019-Jul-17 01:02 11.1
2019-Jul-17 00:57 11.1
2019-Jul-17 00:52 11.1
2019-Jul-17 00:47 11.1
2019-Jul-17 00:42 11.1
2019-Jul-17 00:37 11.1
2019-Jul-17 00:32 11.1
2019-Jul-17 00:27 11.1
2019-Jul-17 00:22 017 2 gusting 4 11.1
2019-Jul-17 00:17 018 2 gusting 6 11.1
2019-Jul-17 00:12 017 1 gusting 6 11.1
2019-Jul-17 00:07 017 2 gusting 6 11.1
2019-Jul-17 00:02 017 2 gusting 6 11.1
2019-Jul-16 23:57 017 2 gusting 6 11.1
2019-Jul-16 23:52 017 3 gusting 5 11.1
2019-Jul-16 23:47 024 2 gusting 5 11.1
2019-Jul-16 23:42 022 2 gusting 5 11.1
2019-Jul-16 23:37 027 3 gusting 5 11.1
2019-Jul-16 23:32 026 2 gusting 5 11.1
2019-Jul-16 23:27 024 2 gusting 5 11.1
2019-Jul-16 23:22 024 2 gusting 5 11.1
2019-Jul-16 23:17 028 2 gusting 5 11.1
2019-Jul-16 23:12 028 2 gusting 6 11.1
2019-Jul-16 23:07 022 2 gusting 6 11.1
2019-Jul-16 23:02 031 2 gusting 6 11.1
2019-Jul-16 22:57 005 2 gusting 6 11.1
2019-Jul-16 22:52 009 2 gusting 6 11.7
2019-Jul-16 22:47 009 2 gusting 6 11.7
2019-Jul-16 22:42 015 2 gusting 6 11.7
2019-Jul-16 22:37 021 2 gusting 6 11.7
2019-Jul-16 22:32 021 3 gusting 6 11.7
2019-Jul-16 22:27 012 3 gusting 6 11.7
2019-Jul-16 22:22 015 2 gusting 6 11.7
2019-Jul-16 22:17 016 2 gusting 7 11.7
2019-Jul-16 22:12 016 3 gusting 7 11.7
2019-Jul-16 22:07 013 3 gusting 7 11.7
2019-Jul-16 22:02 026 3 gusting 7 11.7
2019-Jul-16 21:57 011 4 gusting 7 11.7
2019-Jul-16 21:52 015 4 gusting 7 11.7
2019-Jul-16 21:47 013 3 gusting 7 11.7
2019-Jul-16 21:42 014 3 gusting 6 11.7
2019-Jul-16 21:37 029 3 gusting 6 11.7
2019-Jul-16 21:32 020 3 gusting 6 11.7
2019-Jul-16 21:27 021 3 gusting 6 11.7
2019-Jul-16 21:22 024 3 gusting 6 11.7
2019-Jul-16 21:17 028 3 gusting 6 11.7
2019-Jul-16 21:12 027 3 gusting 6 11.7
2019-Jul-16 21:07 030 3 gusting 6 11.7
2019-Jul-16 21:02 028 3 gusting 6 11.7
2019-Jul-16 20:57 023 3 gusting 6 11.7
2019-Jul-16 20:52 026 3 gusting 6 11.7
2019-Jul-16 20:47 028 2 gusting 6 11.7
2019-Jul-16 20:42 032 2 gusting 6 11.7
2019-Jul-16 20:37 027 3 gusting 6 11.7
2019-Jul-16 20:32 028 3 gusting 6 11.7
2019-Jul-16 20:27 032 3 gusting 6 11.7
2019-Jul-16 20:22 022 3 gusting 6 11.7
2019-Jul-16 20:17 021 3 gusting 5 12.2
2019-Jul-16 20:12 022 2 gusting 5 12.2
2019-Jul-16 20:07 022 2 gusting 5 12.2
2019-Jul-16 20:02 022 2 gusting 5 12.2
2019-Jul-16 19:57 026 2 gusting 5 12.2
2019-Jul-16 19:52 034 2 gusting 5 12.2
2019-Jul-16 19:47 033 2 gusting 6 12.2
2019-Jul-16 19:42 044 2 gusting 6 12.8
2019-Jul-16 19:37 037 3 gusting 5 12.8
2019-Jul-16 19:32 038 2 gusting 5 12.8
2019-Jul-16 19:27 032 1 gusting 6 12.8
2019-Jul-16 19:22 032 1 gusting 6 12.8
2019-Jul-16 19:17 032 1 gusting 4 12.8
2019-Jul-16 19:12 355 0 gusting 3 12.8
2019-Jul-16 19:07 355 0 gusting 3 12.8
2019-Jul-16 19:02 355 0 gusting 3 12.8
2019-Jul-16 18:57 355 0 gusting 4 13.3
2019-Jul-16 18:52 355 1 gusting 5 13.3
2019-Jul-16 18:47 355 2 gusting 5 13.3
2019-Jul-16 18:42 343 0 gusting 3 13.3
2019-Jul-16 18:37 325 13.3
2019-Jul-16 18:32 325 0 gusting 4 13.3
2019-Jul-16 18:27 325 1 gusting 3 13.3
2019-Jul-16 18:22 313 1 gusting 3 13.9
2019-Jul-16 18:17 313 0 gusting 3 13.9
2019-Jul-16 18:12 309 0 gusting 3 13.9
2019-Jul-16 18:07 308 1 gusting 3 13.9
2019-Jul-16 18:02 309 1 gusting 3 13.9
2019-Jul-16 17:57 290 1 gusting 3 13.9
2019-Jul-16 17:52 282 0 gusting 3 14.4
2019-Jul-16 17:47 282 0 gusting 3 14.4
2019-Jul-16 17:42 268 0 gusting 0 14.4
2019-Jul-16 17:37 267 14.4
2019-Jul-16 17:32 267 14.4
2019-Jul-16 17:27 267 14.4
2019-Jul-16 17:22 267 14.4
2019-Jul-16 17:17 267 14.4
2019-Jul-16 17:12 267 14.4
2019-Jul-16 17:07 273 14.4
2019-Jul-16 17:02 281 0 gusting 7 14.4
2019-Jul-16 16:57 280 0 gusting 7 14.4
2019-Jul-16 16:52 273 0 gusting 7 14.4
2019-Jul-16 16:47 273 1 gusting 7 14.4
2019-Jul-16 16:42 331 1 gusting 8 14.4
2019-Jul-16 16:37 026 3 gusting 8 15.0
2019-Jul-16 16:32 027 4 gusting 8 15.0
2019-Jul-16 16:27 022 5 gusting 8 15.0
2019-Jul-16 16:22 011 5 gusting 7 15.6
2019-Jul-16 16:17 015 4 gusting 7 15.6
2019-Jul-16 16:12 010 3 gusting 7 15.6
2019-Jul-16 16:07 075 3 gusting 7 16.1
2019-Jul-16 16:02 056 2 gusting 8 16.1
2019-Jul-16 15:57 090 2 gusting 8 16.1
2019-Jul-16 15:52 087 2 gusting 8 16.1
2019-Jul-16 15:47 094 3 gusting 8 16.1
2019-Jul-16 15:42 019 3 gusting 9 16.1
2019-Jul-16 15:37 042 3 gusting 9 16.1
2019-Jul-16 15:32 046 3 gusting 9 16.1
2019-Jul-16 15:27 020 3 gusting 9 15.6
2019-Jul-16 15:22 042 3 gusting 10 16.1
2019-Jul-16 15:17 058 3 gusting 10 16.1
2019-Jul-16 15:12 031 4 gusting 10 16.1
2019-Jul-16 15:07 034 5 gusting 10 16.1
2019-Jul-16 15:02 034 5 gusting 11 16.7
2019-Jul-16 14:57 059 4 gusting 11 16.7
2019-Jul-16 14:52 056 5 gusting 12 16.7
2019-Jul-16 14:47 036 6 gusting 12 16.7
2019-Jul-16 14:42 055 5 gusting 12 16.7
2019-Jul-16 14:37 079 5 gusting 12 16.1
2019-Jul-16 14:32 034 6 gusting 12 16.1
2019-Jul-16 14:27 062 6 gusting 12 16.1
2019-Jul-16 14:22 019 5 gusting 12 16.1
2019-Jul-16 14:17 042 6 gusting 12 16.1
2019-Jul-16 14:12 059 6 gusting 10 16.1
2019-Jul-16 14:07 018 5 gusting 10 16.1
2019-Jul-16 14:02 064 5 gusting 10 16.1
2019-Jul-16 13:57 051 5 gusting 10 16.1
2019-Jul-16 13:52 028 5 gusting 8 16.1
2019-Jul-16 13:47 023 3 gusting 8 16.1
2019-Jul-16 13:42 013 2 gusting 9 16.1
2019-Jul-16 13:37 039 2 gusting 9 16.1
2019-Jul-16 13:32 040 2 gusting 9 15.6
2019-Jul-16 13:27 055 3 gusting 9 15.6
2019-Jul-16 13:22 030 4 gusting 7 15.6
2019-Jul-16 13:17 069 3 gusting 7 15.6
2019-Jul-16 13:12 037 2 gusting 9 15.6
2019-Jul-16 13:07 040 2 gusting 9 15.6
2019-Jul-16 13:02 029 3 gusting 7 15.6
2019-Jul-16 12:57 062 4 gusting 7 15.6
2019-Jul-16 12:52 038 3 gusting 6 15.6
2019-Jul-16 12:47 056 2 gusting 6 15.6
2019-Jul-16 12:42 074 1 gusting 4 15.0
2019-Jul-16 12:37 005 0 gusting 4 15.0
2019-Jul-16 12:32 005 0 gusting 6 14.4
2019-Jul-16 12:27 005 1 gusting 6 14.4
2019-Jul-16 12:22 005 2 gusting 6 14.4
2019-Jul-16 12:17 021 2 gusting 6 13.9
2019-Jul-16 12:12 028 2 gusting 6 13.9
2019-Jul-16 12:07 060 2 gusting 6 13.9
2019-Jul-16 12:02 019 1 gusting 9 13.9
2019-Jul-16 11:57 005 0 gusting 9 13.9
2019-Jul-16 11:52 005 1 gusting 9 13.9
2019-Jul-16 11:47 277 2 gusting 9 14.4
2019-Jul-16 11:42 125 2 gusting 7 14.4
2019-Jul-16 11:37 126 1 gusting 7 14.4
2019-Jul-16 11:32 137 2 gusting 6 14.4
2019-Jul-16 11:27 135 3 gusting 6 14.4
2019-Jul-16 11:22 161 2 gusting 6 15.0
2019-Jul-16 11:17 169 1 gusting 6 15.0
2019-Jul-16 11:12 147 1 gusting 12 15.0
2019-Jul-16 11:07 142 2 gusting 12 15.0
2019-Jul-16 11:02 174 3 gusting 7 15.6
2019-Jul-16 10:57 182 4 gusting 7 15.6
2019-Jul-16 10:52 169 2 gusting 6 16.1
2019-Jul-16 10:47 196 0 gusting 6 16.1
2019-Jul-16 10:42 150 0 gusting 7 16.1
2019-Jul-16 10:37 150 2 gusting 7 15.6
2019-Jul-16 10:32 148 3 gusting 11 16.1
2019-Jul-16 10:27 188 3 gusting 11 16.1
2019-Jul-16 10:22 130 5 gusting 10 16.1
2019-Jul-16 10:17 153 6 gusting 10 16.7
2019-Jul-16 10:12 154 6 gusting 11 16.7
2019-Jul-16 10:07 144 6 gusting 11 17.2
2019-Jul-16 10:02 147 6 gusting 10 17.2
2019-Jul-16 09:57 103 6 gusting 10 17.8
2019-Jul-16 09:53 101 5 gusting 11 17.8
2019-Jul-16 09:47 105 6 gusting 11 17.8
2019-Jul-16 09:42 134 6 gusting 12 17.8
2019-Jul-16 09:37 154 5 gusting 12 17.8
2019-Jul-16 09:32 098 5 gusting 7 17.2
2019-Jul-16 09:27 156 4 gusting 7 17.2
2019-Jul-16 09:22 144 3 gusting 7 17.2
2019-Jul-16 09:17 109 3 gusting 7 16.7
2019-Jul-16 09:12 139 3 gusting 8 16.7
2019-Jul-16 09:07 130 3 gusting 8 16.7
2019-Jul-16 09:02 144 4 gusting 12 16.7
2019-Jul-16 08:57 146 5 gusting 12 16.7
2019-Jul-16 08:52 140 6 gusting 13 16.7
2019-Jul-16 08:47 135 6 gusting 13 16.7
2019-Jul-16 08:42 133 5 gusting 10 16.7
2019-Jul-16 08:37 136 5 gusting 10 16.1
2019-Jul-16 08:32 136 5 gusting 9 16.1
2019-Jul-16 08:27 125 5 gusting 9 16.1
2019-Jul-16 08:22 132 5 gusting 8 16.1
2019-Jul-16 08:17 113 4 gusting 8 16.1
2019-Jul-16 08:12 136 4 gusting 8 16.1
2019-Jul-16 08:07 130 5 gusting 8 16.1
2019-Jul-16 08:02 142 4 gusting 8 16.1
2019-Jul-16 07:57 136 3 gusting 8 16.1
2019-Jul-16 07:52 125 3 gusting 8 15.6
2019-Jul-16 07:47 153 2 gusting 8 15.6
2019-Jul-16 07:42 143 2 gusting 7 15.6
2019-Jul-16 07:37 139 2 gusting 7 15.6
2019-Jul-16 07:32 092 2 gusting 3 15.0
2019-Jul-16 07:27 177 1 gusting 3 15.0
2019-Jul-16 07:22 152 0 gusting 6 15.0
2019-Jul-16 07:17 155 15.0
2019-Jul-16 07:12 155 0 gusting 6 15.0
2019-Jul-16 07:07 155 2 gusting 6 15.0
2019-Jul-16 07:02 155 2 gusting 6 15.0
2019-Jul-16 06:57 149 2 gusting 6 15.6
2019-Jul-16 06:52 178 1 gusting 6 15.6
2019-Jul-16 06:47 180 1 gusting 6 16.1
2019-Jul-16 06:42 187 2 gusting 7 16.7
2019-Jul-16 06:37 190 1 gusting 7 16.7
2019-Jul-16 06:32 183 1 gusting 9 16.7
2019-Jul-16 06:27 191 2 gusting 9 16.7
2019-Jul-16 06:22 154 4 gusting 10 16.7
2019-Jul-16 06:17 163 6 gusting 10 16.7
2019-Jul-16 06:12 162 6 gusting 13 16.7
2019-Jul-16 06:07 173 5 gusting 13 17.2
2019-Jul-16 06:02 161 4 gusting 13 17.2
2019-Jul-16 05:57 173 5 gusting 13 17.2
2019-Jul-16 05:52 155 6 gusting 11 17.2
2019-Jul-16 05:47 161 5 gusting 11 17.2
2019-Jul-16 05:42 156 5 gusting 11 17.2
2019-Jul-16 05:37 134 5 gusting 11 17.2
2019-Jul-16 05:32 124 6 gusting 13 17.2
2019-Jul-16 05:27 129 6 gusting 13 17.2
2019-Jul-16 05:22 136 6 gusting 13 16.7
2019-Jul-16 05:17 140 6 gusting 13 16.7
2019-Jul-16 05:12 158 7 gusting 13 16.1
2019-Jul-16 05:07 169 6 gusting 13 16.1
2019-Jul-16 05:02 148 6 gusting 13 16.1
2019-Jul-16 04:57 134 7 gusting 12 15.6
2019-Jul-16 04:52 139 6 gusting 12 15.6
2019-Jul-16 04:47 160 6 gusting 12 15.6
2019-Jul-16 04:42 150 6 gusting 11 15.6
2019-Jul-16 04:37 145 5 gusting 11 15.0
2019-Jul-16 04:32 141 5 gusting 13 15.0
2019-Jul-16 04:27 173 6 gusting 13 15.0
2019-Jul-16 04:22 157 6 gusting 10 15.0
2019-Jul-16 04:17 146 5 gusting 10 15.0
2019-Jul-16 04:12 165 5 gusting 12 15.0
2019-Jul-16 04:07 121 6 gusting 12 15.0
2019-Jul-16 04:02 150 6 gusting 13 15.0
2019-Jul-16 03:57 130 6 gusting 13 15.0
2019-Jul-16 03:52 158 6 gusting 8 15.0
2019-Jul-16 03:47 143 6 gusting 8 15.0
2019-Jul-16 03:42 126 5 gusting 10 15.0
2019-Jul-16 03:37 154 5 gusting 10 14.4
2019-Jul-16 03:32 132 6 gusting 10 14.4
2019-Jul-16 03:27 132 6 gusting 10 14.4
2019-Jul-16 03:22 156 6 gusting 14 14.4
2019-Jul-16 03:17 126 6 gusting 14 14.4
2019-Jul-16 03:12 146 6 gusting 12 14.4
2019-Jul-16 03:07 153 6 gusting 12 14.4
2019-Jul-16 03:02 140 6 gusting 12 14.4
2019-Jul-16 02:57 117 6 gusting 11 13.9
2019-Jul-16 02:52 123 6 gusting 11 13.9
2019-Jul-16 02:47 157 6 gusting 11 13.9
2019-Jul-16 02:42 138 6 gusting 10 13.9
2019-Jul-16 02:37 138 6 gusting 10 13.9
2019-Jul-16 02:32 156 5 gusting 13 13.9
2019-Jul-16 02:27 142 4 gusting 13 13.9
2019-Jul-16 02:22 147 6 gusting 11 13.9
2019-Jul-16 02:17 146 6 gusting 11 13.9
2019-Jul-16 02:12 137 6 gusting 13 13.9
2019-Jul-16 02:07 101 6 gusting 13 13.9
2019-Jul-16 02:02 126 6 gusting 13 13.9
2019-Jul-16 01:57 146 6 gusting 13 13.9
2019-Jul-16 01:52 137 6 gusting 10 13.9
2019-Jul-16 01:47 157 6 gusting 10 14.4
2019-Jul-16 01:42 105 5 gusting 10 14.4
2019-Jul-16 01:37 159 6 gusting 10 14.4
2019-Jul-16 01:32 145 6 gusting 13 14.4
2019-Jul-16 01:27 140 6 gusting 13 14.4
2019-Jul-16 01:22 143 6 gusting 13 14.4
2019-Jul-16 01:17 142 6 gusting 10 14.4
2019-Jul-16 01:12 131 6 gusting 11 14.4
2019-Jul-16 01:07 144 6 gusting 12 15.0
2019-Jul-16 01:02 131 6 gusting 12 15.0
2019-Jul-16 00:57 153 7 gusting 13 15.0
2019-Jul-16 00:52 148 6 gusting 13 15.0
2019-Jul-16 00:47 171 6 gusting 13 15.0
2019-Jul-16 00:42 152 6 gusting 13 15.0
2019-Jul-16 00:37 142 6 gusting 13 15.0
2019-Jul-16 00:32 150 6 gusting 13 15.0
2019-Jul-16 00:27 144 6 gusting 14 15.0
2019-Jul-16 00:22 138 7 gusting 14 15.0
2019-Jul-16 00:17 116 7 gusting 13 15.0
2019-Jul-16 00:12 141 6 gusting 12 15.0
2019-Jul-16 00:07 159 6 gusting 11 15.0
2019-Jul-16 00:02 128 6 gusting 11 15.0
2019-Jul-15 23:57 126 6 gusting 13 15.0
2019-Jul-15 23:52 169 6 gusting 13 15.0
2019-Jul-15 23:47 140 6 gusting 13 15.0
2019-Jul-15 23:42 153 5 gusting 12 15.0
2019-Jul-15 23:37 144 6 gusting 12 15.0
2019-Jul-15 23:32 119 5 gusting 9 15.0
2019-Jul-15 23:27 155 5 gusting 10 15.0
2019-Jul-15 23:22 142 6 gusting 10 15.0
2019-Jul-15 23:17 148 6 gusting 12 15.0
2019-Jul-15 23:12 146 6 gusting 12 15.0
2019-Jul-15 23:07 148 6 gusting 12 15.0
2019-Jul-15 23:02 144 6 gusting 10 15.0
2019-Jul-15 22:57 140 5 gusting 9 15.0
2019-Jul-15 22:52 150 4 gusting 9 15.0
2019-Jul-15 22:47 165 4 gusting 8 15.0
2019-Jul-15 22:42 161 4 gusting 9 15.6
2019-Jul-15 22:37 136 5 gusting 10 15.6
2019-Jul-15 22:32 171 4 gusting 11 15.6
2019-Jul-15 22:27 163 5 gusting 11 15.6
2019-Jul-15 22:22 148 6 gusting 11 15.6
2019-Jul-15 22:17 142 6 gusting 11 15.6
2019-Jul-15 22:12 136 6 gusting 9 15.6
2019-Jul-15 22:07 145 5 gusting 11 15.6
2019-Jul-15 22:02 150 6 gusting 11 15.6
2019-Jul-15 21:57 125 6 gusting 13 15.6
2019-Jul-15 21:52 144 5 gusting 13 15.6
2019-Jul-15 21:47 127 6 gusting 13 15.6
2019-Jul-15 21:42 152 6 gusting 9 15.6
2019-Jul-15 21:37 127 6 gusting 9 15.6
2019-Jul-15 21:32 154 5 gusting 9 16.1
2019-Jul-15 21:27 159 5 gusting 9 16.1
2019-Jul-15 21:22 148 5 gusting 11 16.1
2019-Jul-15 21:17 131 5 gusting 11 16.1
2019-Jul-15 21:12 134 6 gusting 11 16.1
2019-Jul-15 21:07 134 6 gusting 11 16.1
2019-Jul-15 21:02 131 5 gusting 11 16.1
2019-Jul-15 20:57 144 5 gusting 11 16.7
2019-Jul-15 20:52 157 5 gusting 11 16.7
2019-Jul-15 20:47 159 5 gusting 11 16.7
2019-Jul-15 20:42 150 5 gusting 11 16.7
2019-Jul-15 20:37 152 6 gusting 9 16.1
2019-Jul-15 20:32 152 5 gusting 9 16.1
2019-Jul-15 20:27 137 5 gusting 8 16.1
2019-Jul-15 20:22 143 5 gusting 9 16.1
2019-Jul-15 20:17 145 5 gusting 11 16.7
2019-Jul-15 20:12 159 5 gusting 12 16.7
2019-Jul-15 20:07 161 5 gusting 12 16.7
2019-Jul-15 20:02 142 6 gusting 12 16.7
2019-Jul-15 19:57 119 5 gusting 10 16.7
2019-Jul-15 19:52 132 4 gusting 10 16.7
2019-Jul-15 19:47 150 5 gusting 10 17.2
2019-Jul-15 19:42 148 6 gusting 8 17.2
2019-Jul-15 19:37 145 5 gusting 8 17.2
2019-Jul-15 19:32 140 5 gusting 9 17.2
2019-Jul-15 19:27 130 5 gusting 9 17.2
2019-Jul-15 19:22 150 5 gusting 9 17.2
2019-Jul-15 19:17 128 4 gusting 8 17.2
2019-Jul-15 19:12 134 4 gusting 8 17.2
2019-Jul-15 19:07 138 5 gusting 8 17.8
2019-Jul-15 19:02 140 5 gusting 8 17.8
2019-Jul-15 18:57 146 4 gusting 8 17.8
2019-Jul-15 18:52 143 4 gusting 9 17.8
2019-Jul-15 18:47 148 5 gusting 13 17.8
2019-Jul-15 18:42 150 6 gusting 13 17.8
2019-Jul-15 18:37 133 6 gusting 10 17.8
2019-Jul-15 18:32 151 6 gusting 9 17.8
2019-Jul-15 18:27 138 6 gusting 9 17.8
2019-Jul-15 18:22 142 4 gusting 8 17.8
2019-Jul-15 18:17 129 4 gusting 8 17.8
2019-Jul-15 18:12 138 4 gusting 6 18.3
2019-Jul-15 18:07 138 4 gusting 6 18.3
2019-Jul-15 18:02 130 3 gusting 7 18.3
2019-Jul-15 17:57 140 3 gusting 7 18.3
2019-Jul-15 17:52 146 4 gusting 6 18.3
2019-Jul-15 17:47 136 4 gusting 6 18.3
2019-Jul-15 17:42 126 3 gusting 6 18.3
2019-Jul-15 17:37 139 2 gusting 6 18.3
2019-Jul-15 17:32 123 2 gusting 6 18.9
2019-Jul-15 17:27 137 3 gusting 6 18.9
2019-Jul-15 17:22 134 3 gusting 6 18.9
2019-Jul-15 17:17 153 2 gusting 6 18.9
2019-Jul-15 17:12 148 3 gusting 8 18.9
2019-Jul-15 17:07 158 4 gusting 8 18.9
2019-Jul-15 17:02 175 4 gusting 8 18.9
2019-Jul-15 16:57 143 3 gusting 8 18.9
2019-Jul-15 16:52 166 2 gusting 6 18.9
2019-Jul-15 16:47 131 1 gusting 6 18.9
2019-Jul-15 16:42 138 1 gusting 8 18.9
2019-Jul-15 16:37 129 1 gusting 8 19.4
2019-Jul-15 16:32 136 3 gusting 8 19.4
2019-Jul-15 16:27 148 4 gusting 8 19.4
2019-Jul-15 16:22 195 2 gusting 3 19.4
2019-Jul-15 16:17 159 19.4
2019-Jul-15 16:12 159 19.4
2019-Jul-15 16:07 159 19.4
2019-Jul-15 16:02 159 20.0
2019-Jul-15 15:57 159 20.0
2019-Jul-15 15:52 159 20.0
2019-Jul-15 15:47 159 20.0
2019-Jul-15 15:42 159 20.0
2019-Jul-15 15:37 159 20.0
2019-Jul-15 15:32 159 0 gusting 3 20.0
2019-Jul-15 15:27 159 0 gusting 3 20.0
2019-Jul-15 15:22 159 20.0
2019-Jul-15 15:17 159 20.0
2019-Jul-15 15:12 158 0 gusting 5 20.0
2019-Jul-15 15:07 159 1 gusting 5 20.0
2019-Jul-15 15:02 159 1 gusting 5 20.0
2019-Jul-15 14:57 159 2 gusting 5 20.6
2019-Jul-15 14:52 159 1 gusting 4 20.6
2019-Jul-15 14:47 159 1 gusting 4 20.6
2019-Jul-15 14:42 159 0 gusting 6 20.6
2019-Jul-15 14:37 159 1 gusting 6 20.6
2019-Jul-15 14:32 159 2 gusting 5 20.6
2019-Jul-15 14:27 159 2 gusting 5 20.6
2019-Jul-15 14:22 159 0 gusting 6 20.6
2019-Jul-15 14:17 159 2 gusting 6 20.6
2019-Jul-15 14:12 159 4 gusting 6 20.6
2019-Jul-15 14:07 159 3 gusting 6 20.6
2019-Jul-15 14:02 159 3 gusting 7 20.6
2019-Jul-15 13:57 159 3 gusting 7 20.6
2019-Jul-15 13:52 159 3 gusting 8 20.6
2019-Jul-15 13:47 159 3 gusting 8 20.0
2019-Jul-15 13:42 163 3 gusting 8 20.0
2019-Jul-15 13:37 163 4 gusting 8 20.0
2019-Jul-15 13:32 164 4 gusting 7 20.0
2019-Jul-15 13:27 161 3 gusting 7 20.0
2019-Jul-15 13:22 162 4 gusting 7 20.0
2019-Jul-15 13:17 161 4 gusting 7 20.0
2019-Jul-15 13:12 161 3 gusting 6 20.0
2019-Jul-15 13:07 161 3 gusting 6 20.0
2019-Jul-15 13:02 160 2 gusting 6 20.0
2019-Jul-15 12:57 150 2 gusting 6 20.0
2019-Jul-15 12:52 150 1 gusting 4 20.0
2019-Jul-15 12:47 150 0 gusting 4 19.4
2019-Jul-15 12:42 150 19.4
2019-Jul-15 12:37 151 0 gusting 6 19.4
2019-Jul-15 12:32 151 1 gusting 6 19.4
2019-Jul-15 12:27 148 2 gusting 6 19.4
2019-Jul-15 12:22 148 2 gusting 6 19.4
2019-Jul-15 12:17 148 2 gusting 6 19.4
2019-Jul-15 12:12 151 3 gusting 6 20.0
2019-Jul-15 12:07 151 3 gusting 6 20.0
2019-Jul-15 12:02 150 3 gusting 6 20.0
2019-Jul-15 11:57 142 3 gusting 6 20.0
2019-Jul-15 11:52 159 3 gusting 8 20.0
2019-Jul-15 11:47 146 3 gusting 8 20.0
2019-Jul-15 11:42 175 4 gusting 7 20.0
2019-Jul-15 11:37 148 4 gusting 7 20.0
2019-Jul-15 11:32 175 3 gusting 6 20.0
2019-Jul-15 11:27 163 4 gusting 6 20.0
2019-Jul-15 11:22 162 3 gusting 6 20.0
2019-Jul-15 11:17 178 3 gusting 6 20.0
2019-Jul-15 11:12 154 4 gusting 8 20.0
2019-Jul-15 11:07 154 4 gusting 8 20.0
2019-Jul-15 11:02 152 5 gusting 8 20.0
2019-Jul-15 10:57 164 4 gusting 8 20.0
2019-Jul-15 10:52 145 2 gusting 6 20.0
2019-Jul-15 10:47 182 2 gusting 6 20.0
2019-Jul-15 10:42 201 2 gusting 6 20.0
2019-Jul-15 10:37 194 2 gusting 6 20.0
2019-Jul-15 10:32 148 2 gusting 6 20.0
2019-Jul-15 10:27 154 2 gusting 6 20.0